Вернуться в каталог

CZ-4 DEB

АктивенSSO
NORAD 32473·DEBRIS·🇨🇳 China

Запущен Sep 19, 2007 с Taiyuan Satellite Launch Center

Loading…

Ближайшие Пролёты (ближайшие 24 часа)

TLE

СвежийSource: Space-Track

Эпоха: Sep 13, 2026, 23:20 UTC

1 32473U 07042C   26256.97247008  .00002385  00000-0  44564-3 0  9994
2 32473  97.9584 262.1025 0085343 313.2533  46.1568 14.63512364991705

Отслеживайте CZ-4 DEB в реальном времени с AllMySat

Download on the App Store